Regional Weather Roundup
Issued by NWS

Home | Current Version | Previous Version | Text Only | Print | Product List | Glossary On
Versions: 1 2 3 4 5 6 7 8 9 10 11 12 13 14 15 16 17 18 19 20 21 22 23 24 25 26 27 28 29 30 31 32 33 34 35 36 37 38 39 40 41 42 43 44 45 46 47 48 49 50
000
ASUS44 KLIX 240113
RWRLA
LOUISIANA WEATHER ROUNDUP
NATIONAL WEATHER SERVICE NEW ORLEANS LA
800 PM CDT THU MAR 23 2017

NOTE: "FAIR" INDICATES FEW OR NO CLOUDS BELOW 12,000 FEET WITH NO
      SIGNIFICANT WEATHER AND/OR OBSTRUCTIONS TO VISIBILITY.
      SKY/WX - SKY CONDITION AND SIGNIFICANT WEATHER.
      TMP - AIR TEMPERATURE.    DP   - DEWPOINT TEMPERATURE.
      RH  - RELATIVE HUMIDITY.  PRES - PRESSURE.
      HX  - HEAT INDEX.         WCI  - WIND CHILL INDEX.

*  THESE STATIONS ARE NOT NWS OR FAA STATIONS AND ARE NOT UNDER
   NWS QUALITY CONTROL.

LAZ040-048-061>063-065-066-069-240200-
SOUTHEAST LOUISIANA

CITY           SKY/WX    TMP DP  RH WIND       PRES   REMARKS
N.O. INTL ARPT PTCLDY    72  65  78 SE18      30.17S
N.O. LAKEFRONT PTCLDY    72  66  81 E16       30.18S
N.O. DOWNTOWN*   N/A     72  65  78 VRB6      30.19R
RESERVE*       FAIR      73  68  84 E3        30.16S
SLIDELL        CLOUDY    71  64  78 E9        30.19S
BATON ROUGE    MOCLDY    75  65  70 E15       30.14R
BOOTHVILLE     CLEAR     69  67  93 E6        30.19S
BELLE CHASSE   PTCLDY    75  66  73 E9        30.17F
BOGALUSA*      FAIR      71  63  73 SE12      30.20S
GALLIANO*      MOCLDY    72  65  79 E6        30.17S
NEW ROADS*     FAIR      76  63  62 SE9       30.12S
GONZALES*      FAIR      74  66  76 E5        30.14S
HAMMOND*       CLEAR     70  63  78 SE10      30.17S
HOUMA*         CLEAR     71  65  80 SE7       30.16R
PORT FOURCHON* MOCLDY    73  68  83 SE13G20   30.17S

$$

LAZ041-044-053-054-240200-
SOUTHWEST LOUISIANA

CITY           SKY/WX    TMP DP  RH WIND       PRES   REMARKS
LAKE CHARLES   CLEAR     70  63  78 S9        30.10F
LAFAYETTE      CLEAR     78  62  57 S10       30.12S
PATTERSON      CLEAR     71  66  84 S6        30.15R
SALT POINT       N/A     69  66  90 SE5       30.13S
NEW IBERIA     CLEAR     73  59  61 S7        30.13S
CHENAULT AIRPK NOT AVBL

$$

LAZ027-028-240200-
CENTRAL LOUISIANA

CITY           SKY/WX    TMP DP  RH WIND       PRES   REMARKS
FORT POLK      CLEAR     74  50  42 SE8       30.07S
ALEXANDRIA INT CLEAR     72  53  51 S7        30.06F
ALEXANDRIA     CLEAR     69  56  62 CALM      30.08F

$$

LAZ001-002-240200-
NORTHWEST LOUISIANA

CITY           SKY/WX    TMP DP  RH WIND       PRES   REMARKS
SHREVEPORT     PTCLDY    78  51  38 S14       30.01S
BARKSDALE AFB  CLEAR     71  52  50 SE9       30.02S
DTN SHREVEPORT CLEAR     80  50  34 S12       30.02R

$$

LAZ014-016-240200-
NORTHEAST LOUISIANA

CITY           SKY/WX    TMP DP  RH WIND       PRES   REMARKS
MONROE         CLEAR     75  50  41 S5        30.07S
TALLULAH       CLEAR     76  52  43 S9        30.09S

$$




USA.gov is the U.S. government's official web portal to all federal, state and local government web resources and services.